Wetterdaten Herbst 2016

Datum T max T min Regen
01.09.2016 25.9 °C 14.8 °C 0 mm
02.09.2016 25.3 °C 13.1 °C 0 mm
03.09.2016 25.8 °C 14.1 °C 0 mm
04.09.2016 21.5 °C 14 °C 2.6 mm
05.09.2016 19.6 °C 14.6 °C 0 mm
06.09.2016 23.2 °C 11.2 °C 0 mm
07.09.2016 23.9 °C 10.9 °C 0 mm
08.09.2016 28.3 °C 13.2 °C 0 mm
09.09.2016 25.9 °C 13.8 °C 0 mm
10.09.2016 27.5 °C 13.7 °C 0 mm
11.09.2016 27.3 °C 14.4 °C 0 mm
12.09.2016 28.1 °C 14.7 °C 0 mm
13.09.2016 30.1 °C 15.9 °C 0 mm
14.09.2016 28.8 °C 14.1 °C 0 mm
15.09.2016 24.2 °C 14.8 °C 0 mm
16.09.2016 19.9 °C 12.9 °C 0 mm
17.09.2016 20.1 °C 12.9 °C 5 mm
18.09.2016 15.6 °C 13.9 °C 18.2 mm
19.09.2016 16 °C 12.8 °C 0 mm
20.09.2016 15.7 °C 12.6 °C 0.2 mm
21.09.2016 17.1 °C 8.3 °C 0 mm
22.09.2016 19 °C 6.9 °C 0 mm
23.09.2016 19.2 °C 7.9 °C 0 mm
24.09.2016 21 °C 7.8 °C 0 mm
25.09.2016 22.4 °C 9.5 °C 0 mm
26.09.2016 16.7 °C 12.4 °C 1.8 mm
27.09.2016 17.8 °C 11.6 °C 16.2 mm
28.09.2016 20.9 °C 9.3 °C 0 mm
29.09.2016 23.5 °C 9.8 °C 0 mm
30.09.2016 21.6 °C 13.2 °C 0 mm
01.10.2016 19.6 °C 11.9 °C 0.8 mm
02.10.2016 16.5 °C 10.6 °C 0.2 mm
03.10.2016 13.8 °C 9.1 °C 4.6 mm
05.10.2016 12.2 °C 4 °C 0 mm
06.10.2016 10.1 °C 3.9 °C 0 mm
07.10.2016 12.2 °C 8.4 °C 0 mm
08.10.2016 11.2 °C 6.3 °C 1.6 mm
09.10.2016 11.8 °C 5.7 °C 1 mm
10.10.2016 10.8 °C 4.2 °C 0 mm
11.10.2016 10.7 °C 4.1 °C 0 mm
12.10.2016 11.9 °C 3.4 °C 0 mm
13.10.2016 11.3 °C 0.6 °C 0 mm
14.10.2016 12.7 °C 3.2 °C 0 mm
15.10.2016 16.3 °C 5.3 °C 0 mm
16.10.2016 18.4 °C 5.1 °C 0 mm
17.10.2016 16.4 °C 7.8 °C 3.2 mm
18.10.2016 13.9 °C 9.9 °C 1.8 mm
19.10.2016 11.5 °C 6.8 °C 1.6 mm
20.10.2016 8.9 °C 6.4 °C 9.8 mm
21.10.2016 9.2 °C 5.2 °C 2 mm
22.10.2016 10.3 °C 5.2 °C 0 mm
23.10.2016 11.3 °C 1.8 °C 1.8 mm
24.10.2016 15.7 °C 9.2 °C 7.2 mm
25.10.2016 13.7 °C 10.6 °C 8.2 mm
26.10.2016 13.1 °C 8.6 °C 0 mm
27.10.2016 12.3 °C 5.6 °C 0 mm
28.10.2016 12.3 °C 2.6 °C 0 mm
29.10.2016 13.6 °C 4.9 °C 0 mm
30.10.2016 11.8 °C 4.3 °C 0 mm
31.10.2016 12.8 °C 1.8 °C 0 mm
01.11.2016 12.9 °C 2.2 °C 0 mm
02.11.2016 9.8 °C 4.3 °C 1.8 mm
03.11.2016 9.3 °C 1.4 °C 0 mm
04.11.2016 8.7 °C -0.3 °C 0 mm
05.11.2016 10.2 °C 5.6 °C 4 mm
06.11.2016 7.3 °C 0.1 °C 0 mm
07.11.2016 5.8 °C -1.8 °C 0 mm
08.11.2016 3.9 °C -3.3 °C 0 mm
09.11.2016 6.3 °C 1.2 °C 3.8 mm
10.11.2016 7.2 °C 4.4 °C 8 mm
11.11.2016 5.4 °C 2.1 °C 17.8 mm
12.11.2016 3.7 °C -1.2 °C 0 mm
13.11.2016 4.8 °C -2.3 °C 0 mm
14.11.2016 2 °C -4.9 °C 0 mm
15.11.2016 5.5 °C -0.7 °C 2.4 mm
16.11.2016 9.9 °C 5.5 °C 4 mm
17.11.2016 13.2 °C 7.8 °C 0 mm
18.11.2016 14.3 °C 6.9 °C 2.8 mm
19.11.2016 7.6 °C 3.8 °C 2.2 mm
20.11.2016 15.3 °C 2.9 °C 0 mm
21.11.2016 9.7 °C 2.8 °C 0 mm
22.11.2016 10.2 °C 5.7 °C 0 mm
23.11.2016 8.4 °C 4 °C 0 mm
24.11.2016 8.2 °C 1.7 °C 0 mm
25.11.2016 8.5 °C 7.3 °C 0 mm
26.11.2016 8.2 °C 6.3 °C 0.2 mm
27.11.2016 7.5 °C 0.5 °C 0 mm
28.11.2016 3.2 °C -3 °C 0 mm
29.11.2016 2.4 °C -4.8 °C 0 mm
30.11.2016 2 °C -6.3 °C 0 mm
 Hinweis zur Datenqualität
∅ Temperatur

10.2 °C

Abweichung vom Mittel

-0.1 °C

Niederschlag

134.8 mm

Abweichung vom Mittel

88 %

30.1 °C

Lufttemperatur
13.09.2016

1035 hPa

Luftdruck
28.10.2016

28.8 km/h

Windböen
10.11.2016

134.8 mm

Niederschlag
 

-6.3 °C

Lufttemperatur
30.11.2016

-5.6 °C

Bodentemperatur 5cm
01.01.1970

999 hPa

Luftdruck
05.11.2016
 Hinweis zur Datenqualität